Location: ??????
(55.7522°N, 37.6156°E)
Time: 18:20:44
(UTC+00:00)

SeaSat 1 - Pass Details

Date: 14 June 2025
Orbit: 738 x 740 km, 108.0° (Epoch: 13 July)

Event Time Altitude Azimuth Distance (km) Brightness Sun altitude
Exits shadow 21:57:57 15° 188° (S) 1,952 3.9 -10.7°
Maximum altitude 22:01:33 34° 248° (WSW) 1,206 3.3 -10.7°
Drops below altitude 10° 22:06:00 10° 313° (NW) 2,260 5.4 -10.6°
Sets 22:08:29 0° 323° (NW) 3,188 6.4 -10.5°
